TimeCDT,TemperatureF,Dew PointF,Humidity,Sea Level PressureIn,VisibilityMPH,Wind Direction,Wind SpeedMPH,Gust SpeedMPH,PrecipitationIn,Events,Conditions,WindDirDegrees,DateUTC
12:58 AM,72.5,70.3,93,29.87,10.0,SSW,3.5,-,N/A,,Clear,210,2013-07-23 05:58:00
1:58 AM,72.9,69.6,90,29.86,10.0,SSW,4.6,-,N/A,,Clear,200,2013-07-23 06:58:00
2:58 AM,72.9,70.7,93,29.82,10.0,South,5.8,-,N/A,Thunderstorm,Mostly Cloudy,170,2013-07-23 07:58:00
3:33 AM,75.2,68.0,78,29.88,10.0,North,20.7,31.1,N/A,Thunderstorm,Overcast,350,2013-07-23 08:33:00
3:42 AM,71.6,66.2,83,29.87,10.0,North,9.2,31.1,N/A,Thunderstorm,Thunderstorm,10,2013-07-23 08:42:00
3:50 AM,71.6,66.2,83,29.87,10.0,North,16.1,21.9,N/A,Rain-Thunderstorm,Light Thunderstorms and Rain,350,2013-07-23 08:50:00
3:58 AM,70.0,67.6,92,29.85,8.0,North,13.8,21.9,0.01,Rain-Thunderstorm,Light Thunderstorms and Rain,10,2013-07-23 08:58:00
4:06 AM,68.0,68.0,100,29.92,5.0,NNW,13.8,19.6,N/A,Rain-Thunderstorm,Heavy Thunderstorms and Rain,330,2013-07-23 09:06:00
4:11 AM,-9999,-9999,N/A,-9999,-9999.0,West,2.3,-,N/A,,Unknown,270,2013-07-23 09:11:00
4:12 AM,68.0,68.0,100,29.90,-9999.0,North,8.1,-,N/A,Thunderstorm,Thunderstorm,10,2013-07-23 09:12:00
4:14 AM,68.0,68.0,100,29.91,-9999.0,Variable,6.9,-,N/A,Rain-Thunderstorm,Heavy Thunderstorms and Rain,0,2013-07-23 09:14:00
4:19 AM,68.0,68.0,100,29.90,1.5,NE,11.5,17.3,N/A,Rain-Thunderstorm,Heavy Thunderstorms and Rain,50,2013-07-23 09:19:00
4:29 AM,68.0,68.0,100,29.91,2.5,NE,11.5,-,N/A,Rain-Thunderstorm,Heavy Thunderstorms and Rain,40,2013-07-23 09:29:00
4:34 AM,68.0,68.0,100,29.94,2.5,Variable,6.9,-,N/A,Rain-Thunderstorm,Heavy Thunderstorms and Rain,0,2013-07-23 09:34:00
4:39 AM,68.0,68.0,100,29.94,1.5,Variable,4.6,-,N/A,Rain-Thunderstorm,Heavy Thunderstorms and Rain,0,2013-07-23 09:39:00
4:44 AM,68.0,68.0,100,29.93,0.8,Variable,2.3,-,N/A,Rain-Thunderstorm,Heavy Thunderstorms and Rain,0,2013-07-23 09:44:00
4:49 AM,68.0,68.0,100,29.93,1.0,WSW,5.8,-,N/A,Rain-Thunderstorm,Heavy Thunderstorms and Rain,250,2013-07-23 09:49:00
4:54 AM,68.0,68.0,100,29.90,3.0,East,3.5,-,N/A,Rain-Thunderstorm,Thunderstorms and Rain,90,2013-07-23 09:54:00
4:58 AM,67.6,67.6,100,29.86,4.0,East,5.8,-,0.79,Rain-Thunderstorm,Light Thunderstorms and Rain,100,2013-07-23 09:58:00
5:10 AM,68.0,68.0,100,29.88,10.0,South,6.9,-,N/A,Thunderstorm,Thunderstorm,180,2013-07-23 10:10:00
5:11 AM,68.0,68.0,100,29.88,10.0,SSW,5.8,-,N/A,Thunderstorm,Mostly Cloudy,200,2013-07-23 10:11:00
5:58 AM,68.0,67.8,99,29.85,10.0,South,6.9,-,0.03,,Partly Cloudy,180,2013-07-23 10:58:00
6:58 AM,68.5,68.5,100,29.84,10.0,SSW,5.8,-,N/A,,Clear,200,2013-07-23 11:58:00
7:58 AM,71.6,67.1,86,29.85,10.0,SSE,2.3,-,N/A,,Clear,150,2013-07-23 12:58:00
8:39 AM,73.4,68.0,83,29.88,10.0,Variable,1.2,-,N/A,,Light Drizzle,0,2013-07-23 13:39:00
8:47 AM,75.2,69.8,83,29.88,10.0,Variable,1.2,-,N/A,,Clear,0,2013-07-23 13:47:00
8:58 AM,75.9,69.6,81,29.86,10.0,Variable,2.3,-,0.00,,Clear,0,2013-07-23 13:58:00
9:58 AM,79.3,72.7,80,29.88,10.0,SSW,3.5,-,N/A,,Clear,210,2013-07-23 14:58:00
10:58 AM,81.7,74.3,78,29.89,10.0,Variable,1.2,-,N/A,,Clear,0,2013-07-23 15:58:00
11:58 AM,84.4,75.2,74,29.89,10.0,Variable,2.3,-,N/A,,Clear,0,2013-07-23 16:58:00
12:58 PM,86.5,77.0,73,29.87,10.0,Variable,3.5,-,N/A,,Scattered Clouds,0,2013-07-23 17:58:00
1:58 PM,88.2,77.0,69,29.86,10.0,Variable,4.6,-,N/A,,Scattered Clouds,0,2013-07-23 18:58:00
2:58 PM,88.9,76.3,66,29.84,10.0,NW,4.6,-,N/A,,Scattered Clouds,310,2013-07-23 19:58:00
3:58 PM,91.0,76.5,62,29.81,10.0,NW,5.8,-,N/A,,Partly Cloudy,320,2013-07-23 20:58:00
4:24 PM,86.0,77.0,74,29.82,10.0,NNE,8.1,-,N/A,Rain-Thunderstorm,Light Thunderstorms and Rain,20,2013-07-23 21:24:00
4:42 PM,82.4,78.8,89,29.83,1.5,Variable,1.2,-,N/A,Rain-Thunderstorm,Heavy Rain,0,2013-07-23 21:42:00
4:47 PM,80.6,78.8,94,29.84,0.8,South,8.1,-,N/A,Rain-Thunderstorm,Light Rain,190,2013-07-23 21:47:00
4:49 PM,78.8,78.8,100,29.84,1.0,South,13.8,20.7,N/A,Rain-Thunderstorm,Light Thunderstorms and Rain,190,2013-07-23 21:49:00
4:54 PM,78.8,77.0,94,29.85,2.0,SW,10.4,20.7,N/A,Rain-Thunderstorm,Thunderstorms and Rain,230,2013-07-23 21:54:00
4:58 PM,77.0,73.4,89,29.84,2.5,West,9.2,20.7,0.19,Rain-Thunderstorm,Thunderstorms and Rain,260,2013-07-23 21:58:00
5:03 PM,75.2,71.6,89,29.85,0.8,South,6.9,-,N/A,Rain-Thunderstorm,Heavy Thunderstorms and Rain,180,2013-07-23 22:03:00
5:13 PM,73.4,71.6,94,29.84,2.5,SW,3.5,-,N/A,Rain-Thunderstorm,Heavy Thunderstorms and Rain,220,2013-07-23 22:13:00
5:17 PM,71.6,71.6,100,29.84,1.8,WSW,3.5,-,N/A,Rain-Thunderstorm,Heavy Rain,250,2013-07-23 22:17:00
5:22 PM,71.6,71.6,100,29.84,2.0,SW,5.8,-,N/A,Rain-Thunderstorm,Light Rain,220,2013-07-23 22:22:00
5:27 PM,71.6,71.6,100,29.82,6.0,SE,5.8,-,N/A,Rain-Thunderstorm,Light Rain,140,2013-07-23 22:27:00
5:39 PM,75.2,73.4,94,29.83,10.0,West,1.2,-,N/A,,Mostly Cloudy,270,2013-07-23 22:39:00
5:58 PM,75.2,74.7,98,29.83,10.0,Variable,3.5,-,0.26,,Partly Cloudy,0,2013-07-23 22:58:00
6:58 PM,74.7,72.1,92,29.86,10.0,SSE,9.2,-,N/A,,Clear,160,2013-07-23 23:58:00
7:58 PM,72.7,70.5,93,29.86,10.0,South,5.8,-,N/A,,Partly Cloudy,170,2013-07-24 00:58:00
8:18 PM,71.6,69.8,94,29.89,10.0,Variable,1.2,-,N/A,,Mostly Cloudy,0,2013-07-24 01:18:00
8:58 PM,71.8,69.4,92,29.88,10.0,SE,3.5,-,N/A,,Overcast,140,2013-07-24 01:58:00
9:08 PM,71.6,69.8,94,29.90,10.0,Calm,Calm,-,N/A,,Overcast,0,2013-07-24 02:08:00
9:58 PM,70.2,69.4,98,29.89,10.0,Calm,Calm,-,N/A,,Partly Cloudy,0,2013-07-24 02:58:00
10:58 PM,70.2,70.2,100,29.88,10.0,ESE,2.3,-,N/A,,Partly Cloudy,120,2013-07-24 03:58:00
11:58 PM,68.4,68.4,100,29.90,10.0,Calm,Calm,-,N/A,,Clear,0,2013-07-24 04:58:00